Tracking 19795 objects as of 19-Jul-2019
HD Live streaming from Space Station
objects crossing your sky now

FENGYUN 1C DEB

Track FENGYUN 1C DEB now!
10-day predictions


NORAD ID: 32143
Int'l Code: 1999-025CSM
Perigee: 769.0 km
Apogee: 922.9 km
Inclination: 98.6 °
Period: 101.7 minutes
Semi major axis: 7216 km
RCS: 0.012 m2 (small)
Launch date: May 10, 1999
Source: People's Republic of China (PRC)
Launch site: Taiyaun Space Center, China (TSC)

Note: This is SATELLITE DEBRIS
aabbcc
Your satellite tracking list
Your tracking list is empty




NASA's NSSDC Master Catalog

Two Line Element Set (TLE):
1 32143U 99025CSM 19195.89883103 +.00000007 +00000-0 +23609-4 0  9994
2 32143 098.6032 232.8150 0106597 015.0972 345.3343 14.16038204627634
Source of the keplerian elements: AFSPC